Location: Eschertshofen
(49.3064°N, 11.5756°E)
Time: 02:52:48
(UTC+00:00)

Cosmos 1867 - Pass Details

Date: 18 September 2020
Orbit: 777 x 799 km, 65.0° (Epoch: 18 October)

Event Time Altitude Azimuth Distance (km) Brightness Sun altitude
Rises 18:25:38 0° 320° (NW) 3,314 7.8 -11.4°
Reaches altitude 10° 18:28:04 10° 320° (NW) 2,381 7.0 -11.8°
Maximum altitude 18:33:34 85° 232° (SW) 808 3.6 -12.7°
Enters shadow 18:38:38 12° 146° (SE) 2,217 5.4 -13.5°
